This demonstration page uses our WeatherBlox Daily Observations layout. Learn more.

Left ArrowRight Arrow

40.92945, -100.16068

Hourly Observations for February 5, 2018

Temp ( °F °C ) Dew Point ( °F °C ) Humidity (%) Winds ( mph kmh ) Pressure ( in mb ) Visibility ( mi km ) Precip ( " mm )
12:15 am 00:15 Partly Cloudy 8 -13.5 1 -17.5 72 72 S 12 19 30.3 1026 10 16.0934 0 0
12:35 am 00:35 Partly Cloudy 8 -13.1 1 -17.2 72 72 S 10 17 30.27 1025 10 16.0934 0 0
12:55 am 00:55 Clear 9 -13 1 -17 72 72 S 16 26 30.27 1025 10 16.0934 0 0
1:15 am 01:15 Clear 9 -13 1 -17 72 72 S 20 31 30.24 1024 10 16.0934 0 0
1:35 am 01:35 Clear 9 -13 1 -17 72 72 S 14 22 30.24 1024 10 16.0934 0 0
1:55 am 01:55 Clear 9 -12.8 2 -16.7 73 73 S 15 24 30.24 1024 10 16.0934 0 0
2:15 am 02:15 Clear 9 -12.6 2 -16.5 73 73 S 17 28 30.21 1023 10 16.0934 0 0
2:35 am 02:35 Clear 10 -12.5 3 -16.3 74 74 S 16 26 30.18 1022 10 16.0934 0 0
2:55 am 02:55 Clear 10 -12.5 3 -16.2 74 74 S 18 30 30.15 1021 10 16.0934 0 0
3:15 am 03:15 Clear 10 -12.5 3 -16 75 75 S 17 28 30.15 1021 10 16.0934 0 0
3:35 am 03:35 Clear 10 -12.1 4 -15.7 75 75 S 20 31 30.12 1020 10 16.0934 0 0
3:55 am 03:55 Clear 11 -11.8 4 -15.5 74 74 S 17 28 30.06 1018 10 16.0934 0 0
4:15 am 04:15 Clear 11 -11.5 5 -15 76 76 S 16 26 30.06 1018 10 16.0934 0 0
4:35 am 04:35 Clear 12 -11.3 5 -15 74 74 S 15 24 30.03 1017 10 16.0934 0 0
4:55 am 04:55 Clear 12 -11.1 6 -14.7 75 75 S 13 20 30.03 1017 10 16.0934 0 0
5:15 am 05:15 Partly Cloudy 13 -10.7 6 -14.2 76 76 S 17 28 30 1016 10 16.0934 0 0
5:35 am 05:35 Mostly Cloudy 13 -10.7 7 -14.1 76 76 S 15 24 30 1016 10 16.0934 0 0
5:55 am 05:55 Cloudy 13 -10.4 7 -13.8 76 76 S 16 26 30 1016 10 16.0934 0 0
6:15 am 06:15 Cloudy 14 -9.9 8 -13.5 75 75 SSW 6 9 30.03 1017 10 16.0934 0 0
6:35 am 06:35 Cloudy 15 -9.7 8 -13.1 77 77 S 12 19 30.03 1017 10 16.0934 0 0
6:55 am 06:55 Cloudy 15 -9.5 9 -13 76 76 S 18 30 29.94 1014 10 16.0934 0 0
7:15 am 07:15 Cloudy 15 -9.2 9 -12.6 77 77 S 15 24 29.94 1014 10 16.0934 0 0
7:35 am 07:35 Cloudy with Light Snow 16 -9 10 -12.2 78 78 S 10 17 29.97 1015 10 16.0934 0 0
7:55 am 07:55 Cloudy with Light Snow 17 -8.5 11 -11.8 77 77 S 12 19 29.94 1014 10 16.0934 0 0
8:15 am 08:15 Cloudy 17 -8.1 11 -11.5 77 77 S 10 17 29.94 1014 10 16.0934 0 0
8:35 am 08:35 Cloudy 18 -7.9 11 -11.5 76 76 S 13 20 29.94 1014 10 16.0934 0 0
8:55 am 08:55 Cloudy with Light Snow 19 -7.5 12 -11 76 76 S 13 20 29.94 1014 10 16.0934 0 0
9:15 am 09:15 Cloudy 19 -7.1 13 -10.7 76 76 S 9 15 29.94 1014 10 16.0934 0 0
9:40 am 09:40 Cloudy 20 -6.6 13 -10.7 73 73 SSW 7 11 29.97 1015 10 16.0934 0 0
9:55 am 09:55 Cloudy 21 -6.1 14 -10.1 74 74 SW 8 13 29.97 1015 10 16.0934 0 0
10:15 am 10:15 Cloudy with Light Snow 21 -6 15 -9.6 76 76 W 7 11 29.97 1015 5 8.0467 0 0
10:35 am 10:35 Cloudy 22 -5.7 15 -9.5 75 75 W 5 7 30 1016 10 16.0934 0 0
10:55 am 10:55 Cloudy 23 -5.1 16 -9 74 74 WNW 8 13 30.03 1017 10 16.0934 0 0
11:15 am 11:15 Cloudy with Haze 23 -4.8 18 -8 79 79 NW 13 20 30.06 1018 5 8.0467 0 0
11:35 am 11:35 Cloudy 24 -4.2 19 -7.2 80 80 NNW 16 26 30.09 1019 10 16.0934 0 0
11:55 am 11:55 Cloudy with Haze 24 -4.6 18 -8 77 77 N 26 43 30.09 1019 4 6.43736 0 0
12:15 pm 12:15 Cloudy with Haze 24 -4.6 17 -8.2 76 76 N 22 35 30.09 1019 4 6.43736 0 0
12:35 pm 12:35 Cloudy 24 -4.3 18 -7.9 76 76 N 22 35 30.12 1020 7 11.26538 0 0
12:55 pm 12:55 Cloudy 24 -4.2 18 -7.7 77 77 N 22 35 30.12 1020 7 11.26538 0 0
1:15 pm 13:15 Cloudy with Haze 25 -4 18 -7.7 76 76 N 23 37 30.15 1021 5 8.0467 0 0
1:35 pm 13:35 Cloudy with Haze 24 -4.5 17 -8.3 75 75 N 26 43 30.15 1021 5 8.0467 0 0
1:55 pm 13:55 Cloudy 24 -4.3 17 -8.4 73 73 N 20 31 30.15 1021 7 11.26538 0 0
2:15 pm 14:15 Cloudy 24 -4.3 16 -8.7 72 72 N 22 35 30.18 1022 10 16.0934 0 0
2:35 pm 14:35 Cloudy 24 -4.5 16 -9 71 71 N 25 41 30.18 1022 10 16.0934 0 0
2:55 pm 14:55 Mostly Cloudy 24 -4.5 15 -9.2 70 70 N 21 33 30.18 1022 10 16.0934 0 0
3:15 pm 15:15 Sunny 24 -4.7 15 -9.5 69 69 N 20 31 30.18 1022 10 16.0934 0 0
3:35 pm 15:35 Sunny 24 -4.6 14 -10 66 66 NNW 24 39 30.18 1022 10 16.0934 0 0
3:55 pm 15:55 Sunny 23 -5.1 12 -11.1 63 63 N 23 37 30.24 1024 10 16.0934 0 0
4:15 pm 16:15 Sunny 23 -5 12 -11 63 63 N 18 30 30.24 1024 10 16.0934 0 0
4:35 pm 16:35 Sunny 23 -5.2 12 -11.1 64 64 N 18 30 30.27 1025 10 16.0934 0 0
4:55 pm 16:55 Sunny 22 -5.6 11 -11.5 64 64 N 18 30 30.27 1025 10 16.0934 0 0
5:15 pm 17:15 Sunny 21 -6.1 10 -12.4 61 61 N 20 31 30.27 1025 10 16.0934 0 0
5:35 pm 17:35 Sunny 20 -6.8 8 -13.5 59 59 N 14 22 30.3 1026 10 16.0934 0 0
5:55 pm 17:55 Sunny 19 -7.5 8 -13.5 63 63 N 13 20 30.33 1027 10 16.0934 0 0
6:15 pm 18:15 Clear 17 -8.1 7 -13.7 64 64 N 13 20 30.36 1028 10 16.0934 0 0
6:35 pm 18:35 Clear 17 -8.5 6 -14.5 62 62 N 10 17 30.36 1028 10 16.0934 0 0
6:55 pm 18:55 Clear 15 -9.2 6 -14.7 65 65 NNE 8 13 30.42 1030 10 16.0934 0 0
7:15 pm 19:15 Clear 14 -9.8 5 -15 66 66 NNE 7 11 30.42 1030 10 16.0934 0 0
7:35 pm 19:35 Clear 12 -11.1 4 -15.5 70 70 Calm 30.42 1030 10 16.0934 0 0
7:55 pm 19:55 Clear 10 -12.1 3 -16.1 72 72 N 5 7 30.45 1031 10 16.0934 0 0
8:15 pm 20:15 Clear 10 -12.4 3 -16.3 73 73 N 5 7 30.48 1032 10 16.0934 0 0
8:35 pm 20:35 Partly Cloudy 10 -12.3 4 -15.8 75 75 N 6 9 30.48 1032 10 16.0934 0 0
8:55 pm 20:55 Clear 8 -13.1 2 -16.6 75 75 N 6 9 30.48 1032 10 16.0934 0 0
9:15 pm 21:15 Clear 8 -13.6 1 -17.1 75 75 N 6 9 30.5 1033 10 16.0934 0 0
9:35 pm 21:35 Clear 7 -14.1 0 -17.6 75 75 N 12 19 30.48 1032 10 16.0934 0 0
9:55 pm 21:55 Clear 8 -13.4 1 -17 75 75 N 7 11 30.48 1032 10 16.0934 0 0
10:15 pm 22:15 Clear 7 -13.7 1 -17.5 73 73 N 7 11 30.5 1033 10 16.0934 0 0
10:35 pm 22:35 Clear 8 -13.2 1 -17.1 73 73 NNW 5 7 30.53 1034 10 16.0934 0 0
10:55 pm 22:55 Clear 7 -13.8 0 -17.7 73 73 Calm 30.56 1035 10 16.0934 0 0
11:15 pm 23:15 Clear 7 -14 0 -17.6 74 74 NW 5 7 30.56 1035 10 16.0934 0 0
11:35 pm 23:35 Partly Cloudy 7 -14.1 1 -17.4 76 76 NW 3 6 30.56 1035 10 16.0934 0 0
11:55 pm 23:55 Mostly Cloudy 9 -13 3 -16.2 77 77 W 3 6 30.56 1035 10 16.0934 0 0

Powered by AerisWeather